Regional Weather Roundup
Issued by NWS Upton, NY

Current Version | Previous Version | Text Only | Print | Product List | Glossary On
Versions: 1 2 3 4 5 6 7 8 9 10 11 12 13 14 15 16 17 18 19 20 21 22 23 24 25 26 27 28 29 30 31 32 33 34 35 36 37 38 39 40 41 42 43 44 45 46 47
000
ASUS41 KOKX 212205
RWROKX

REGIONAL WEATHER ROUNDUP
NATIONAL WEATHER SERVICE NEW YORK NY
600 PM EDT TUE OCT 21 2014

NOTE: "FAIR" INDICATES FEW OR NO CLOUDS BELOW 12,000 FEET WITH NO
SIGNIFICANT WEATHER AND/OR OBSTRUCTIONS TO VISIBILITY.

NYZ071-072-176-178-NJZ106-104-212300-
NEW YORK CITY METRO AREA


CITY           SKY/WX    TMP DP  RH WIND       PRES   REMARKS
CENTRAL PARK   PTCLDY    63  52  67 E8        29.86R
LAGUARDIA APRT MOCLDY    63  54  72 E9        29.83R
KENNEDY INTL   PTCLDY    61  52  72 E5        29.84R
NEWARK/LIBERTY MOCLDY    63  55  75 E5        29.83R
BRNX BOT. GARD   N/A     61  54  77 NE6       29.84S
TETERBORO      LGT RAIN  60  53  77 N8        29.83R
$$

NYZ177-179-078>081-212300-
LONG ISLAND NEW YORK

CITY           SKY/WX    TMP DP  RH WIND       PRES   REMARKS
FARMINGDALE    MOCLDY    60  52  74 E3        29.84S
ISLIP          CLOUDY    60  56  86 E10       29.83F
SHIRLEY        HVY RAIN  60  58  92 S8        29.88R FOG
WESTHAMPTON    LGT RAIN  61  56  83 E3        29.88R
MONTAUK POINT    N/A     63  56  78 NE3       29.88S
$$

NYZ052-065-067-212300-
HUDSON VALLEY

CITY           SKY/WX    TMP DP  RH WIND       PRES   REMARKS
WHITE PLAINS   MOCLDY    60  52  74 CALM      29.85R
NEWBURGH       MOCLDY    54  52  94 NE6       29.89R
MONTGOMERY     CLOUDY    53  49  86 NE6       29.88R
POUGHKEEPSIE   CLOUDY    54  51  90 CALM      29.88R
ALBANY         LGT RAIN  54  50  86 N8        29.93R
$$

NJZ001-105-106-008-010-013-015-019>022-104-212300-
NEW JERSEY

CITY           SKY/WX    TMP DP  RH WIND       PRES   REMARKS
NEWARK/LIBERTY MOCLDY    63  55  75 E5        29.83R
TETERBORO      LGT RAIN  60  53  77 N8        29.83R
CALDWELL       CLOUDY    56  51  84 NE5       29.84S
MORRISTOWN     MOCLDY    59  54  82 NE5       29.84R
SOMERVILLE     HVY RAIN  60  56  86 E6        29.82R VSB 1
SUSSEX         CLOUDY    57  49  74 NE9       29.87R
ANDOVER          N/A     54  51  90 VRB3      29.86R
TRENTON        CLEAR     65  46  50 NW5       29.81R
MILLVILLE      CLEAR     60  51  72 CALM      29.82R
ATLANTIC CITY  PTCLDY    63  53  70 S3        29.82R
WRIGHTSTOWN    PTCLDY    61  55  80 SE6       29.80R
TOMS RIVER     CLOUDY    61  55  82 E3        29.83R
BELMAR         CLEAR     59  52  77 E5        29.82S
$$

PAZ047>061-062-071-212300-
EASTERN PENNSYLVANIA

CITY           SKY/WX    TMP DP  RH WIND       PRES   REMARKS
PHILADELPHIA   MOCLDY    66  48  52 SW6       29.82R
ALLENTOWN      CLEAR     62  46  55 NW3       29.83R
SCRANTON       CLOUDY    58  48  69 NE8       29.86R
$$

CTZ002-004>006-009-010-012-RIZ004-006-007-MAZ004-011-015-212300-
SOUTHERN NEW ENGLAND
 IN CT

CITY           SKY/WX    TMP DP  RH WIND       PRES   REMARKS
BRADLEY INTL   MOCLDY    60  49  66 N8        29.88S
HARTFORD       CLOUDY    62  49  62 VRB6      29.88R
DANBURY        CLOUDY    56  30  37 CALM      29.88R
WTRBRY/OXFORD  MOCLDY    59  48  67 MISG      29.88R
BRIDGEPORT     CLOUDY    62  54  74 E5        29.86S
MERIDEN        CLOUDY    61  52  72 VRB3      29.88R
NEW HAVEN      CLOUDY    61  53  75 NE5       29.86S
CHESTER        MOCLDY    57  55  94 CALM      29.88S
GROTON         MOCLDY    59  53  80 NE3       29.87S
WILLIMANTIC    LGT RAIN  62  48  60 CALM      29.89R

 IN RI

CITY           SKY/WX    TMP DP  RH WIND       PRES   REMARKS
PROVIDENCE     PTCLDY    58  54  86 NE5       29.90R
BLOCK ISLAND   MOCLDY    61  55  82 NE3       29.88S
WESTERLY       PTCLDY    60  55  83 CALM      29.88S

 IN MA

CITY           SKY/WX    TMP DP  RH WIND       PRES   REMARKS
BOSTON         PTCLDY    55  53  93 N7        29.93R
WORCESTER      CLOUDY    55  50  83 NE7       29.92R
WESTFIELD      MOCLDY    56  48  74 N9        29.90R
PROVINCETOWN   MOCLDY    59  54  82 SE6       29.92R
NANTUCKET      CLOUDY    59  56  89 E14       29.90S
$$

ANZ330-335-338-340-345-350-353-355-212300-
COASTAL MARINE OBSERVATIONS


STATION/POSITION TIME  SKY/WX   TEMP    WIND        PRES    VSBY  WAVE
                                AIR SEA DIR/SP/G                  HT/PER
                 (UTC)          (F)     (DEG/KT/KT) (MB)    (MI)  (FT/S)
NY HARB ENTRANCE NOT AVBL
4S FIRE IS       2200               64                N/A           3/ 6
20S FIRE ISLAND  2200            59 64   80/  6/  6 1010.4          3/ 6
23SW MTP         2200                                 N/A           4/ 7
HUDSON CANYON    2200            66 67  240/  6/  6 1009.8          4/ 7
EXECUTION ROCKS  2200            63 63   90/ 10/ 12   N/A
WESTERN LI SOUND 2200            63      90/ 10/ 12   N/A           1
CENTRAL LI SOUND 2200            63 65   70/ 12/ 14   N/A           1
EASTERN LI SOUND 2100            63 64   70/  6/  8   N/A
ROBBINS REEF     2200            62     100/ 11/ 13 1008.9
$$


>>>>>>>>>>>>>>>>>>>>>>>>>>>> KEY <<<<<<<<<<<<<<<<<<<<<<<<<<<
>                                                          <
>     SKY/WX - SKY CONDITION/PRESENT WEATHER               <
>     TMP    - TEMPERATURE IN FAHRENHEIT                   <
>     DP     - DEWPOINT IN FAHRENHEIT                      <
>     RH     - RELATIVE HUMIDITY IN PERCENT                <
>     WIND   - DIRECTION AND SPEED IN MPH                  <
>     PRES   - MEAN SEA LEVEL PRESSURE IN INCHES OF HG     <
>     WCI    - WIND CHILL INDEX                            <
>     VSB    - VISIBILITY IN MILES                         <
>     HX     - HEAT INDEX                                  <
>     TC     - TEMPERATURE IN CELSIUS                      <
>     VRB    - VARIABLE WIND DIRECTION                     <
>                                                          <
>>>>>>>>>>>>>>>>>>>>>>>>>>>> KEY <<<<<<<<<<<<<<<<<<<<<<<<<<<





USA.gov is the U.S. government's official web portal to all federal, state and local government web resources and services.